Location: Newark
(45.5000°N, 11.4167°E)
Time: 11:50:35
(UTC+00:00)

A-11 Canister half - Pass Details

Date: 22 August 2019
Orbit: 1513 x 1686 km, 47.2° (Epoch: 19 September)

Event Time Altitude Azimuth Distance (km) Brightness Sun altitude
Rises 22:11:44 0° 289° (WNW) 4,782 12.1 -31.0°
Reaches altitude 10° 22:14:47 10° 288° (WNW) 3,819 11.4 -31.2°
Maximum altitude 22:24:31 74° 206° (SSW) 1,699 8.9 -31.6°
Enters shadow 22:26:06 64° 152° (SSE) 1,795 8.9 -31.7°
Drops below altitude 10° 22:34:33 10° 124° (ESE) 3,929 - -32.1°
Sets 22:37:44 0° 122° (ESE) 4,925 - -32.2°
